OneWeb SL0695

operational
NORAD ID: 61602 Int'l Des: 2024-188 Owner: ONEWEBE Country: UK Constellation: oneweb
LEOCIRCULARPOLARONEWEB_TYPE

About OneWeb SL0695

Description loading...

Live Position

Loading 3D Globe...

Upcoming Passes

Altitude History

Altitude vs Time

uPlot chart will show altitude changes over time

Two-Line Element Set

1 61602U 24188J 25299.11399345 .00000515 00000-0 14161-2 0 9996
2 61602 87.8833 67.6987 0002099 88.3922 271.7446 13.11418116 53780
Epoch: Oct 26, 2025 • Age: 9 hours

Current Status

Altitude 1221.0 km
Velocity 7.24 km/s
Sub-Earth Point -2.88°S, 145.75°W
Launch Date Oct 20, 2024
Age 1 years
Type internet

Technical Details

Classification Payload
Mass 148.00 kg
Dry Mass 140.00 kg
Total Mass 148.00 kg
Length 1.30 m
Diameter 1.00 m
Span 5.00 m
Shape Trapezoid+2 pan
Manufacturer ONEWUS
Bus Type ARROW
Phase Status In Orbit
Owner/State ONEWEBE/UK

Large Constellations

Loading constellations...